This demonstration page uses our WeatherBlox Daily Observations layout. Learn more.

Left ArrowRight Arrow

34.74481, -87.66753

Hourly Observations for June 18, 2018

Temp ( °F °C ) Dew Point ( °F °C ) Humidity (%) Winds ( mph kmh ) Pressure ( in mb ) Visibility ( mi km ) Precip ( " mm )
12:53 am 00:53 Clear 70 21.1 68 20 93 93 Calm 30.11 1020 10 16 0.00 0.00
1:53 am 01:53 Clear 70 21.1 68 20 93 93 ESE 5 7 30.11 1020 10 16 0.00 0.00
2:53 am 02:53 Clear 70 21.1 68 20 93 93 SSE 3 6 30.10 1019 10 16 0.00 0.00
3:53 am 03:53 Clear 70 21.1 68 20 93 93 Calm 30.11 1020 10 16 0.00 0.00
4:53 am 04:53 Clear 69 20.6 67 19.4 93 93 E 3 6 30.12 1020 10 16 0.00 0.00
5:53 am 05:53 Sunny 69 20.6 67 19.4 93 93 SSE 5 7 30.14 1021 10 16 0.00 0.00
6:53 am 06:53 Sunny 70 21.1 68 20 93 93 S 3 6 30.16 1021 10 16 0.00 0.00
7:53 am 07:53 Sunny 74 23.3 69 20.6 85 85 Calm 30.18 1022 10 16 0.00 0.00
8:53 am 08:53 Sunny 79 26.1 71 21.7 77 77 SW 3 6 30.17 1022 10 16 0.00 0.00
9:53 am 09:53 Sunny 82 27.8 72 22.2 72 72 Calm 30.17 1022 10 16 0.00 0.00
10:53 am 10:53 Sunny 86 30 72 22.2 63 63 VRB 7 11 30.17 1022 10 16 0.00 0.00
11:53 am 11:53 Mostly Sunny 88 31.1 72 22.2 59 59 VRB 7 11 30.16 1021 10 16 0.00 0.00
12:53 pm 12:53 Mostly Sunny 90 32.2 70 21.1 52 52 VRB 3 6 30.14 1021 10 16 0.00 0.00
1:53 pm 13:53 Mostly Cloudy 89 31.7 70 21.1 53 53 VRB 3 6 30.12 1020 10 16 0.00 0.00
2:53 pm 14:53 Sunny 91 32.8 68 20 47 47 WSW 7 11 30.10 1019 10 16 0.00 0.00
3:53 pm 15:53 Sunny 92 33.3 68 20 46 46 W 6 9 30.08 1019 10 16 0.00 0.00
4:53 pm 16:53 Sunny 91 32.8 66 18.9 44 44 WSW 9 15 30.07 1018 10 16 0.00 0.00
5:53 pm 17:53 Sunny 90 32.2 68 20 48 48 WSW 9 15 30.06 1018 10 16 0.00 0.00
6:53 pm 18:53 Sunny 88 31.1 68 20 52 52 WSW 9 15 30.06 1018 10 16 0.00 0.00
7:53 pm 19:53 Sunny 84 28.9 68 20 59 59 WSW 6 9 30.06 1018 10 16 0.00 0.00
8:53 pm 20:53 Clear 80 26.7 71 21.7 74 74 Calm 30.06 1018 10 16 0.00 0.00
9:53 pm 21:53 Clear 76 24.4 71 21.7 85 85 Calm 30.07 1018 10 16 0.00 0.00
10:53 pm 22:53 Clear 76 24.4 71 21.7 85 85 Calm 30.07 1018 10 16 0.00 0.00
11:53 pm 23:53 Clear 74 23.3 70 21.1 88 88 Calm 30.08 1019 10 16 0.00 0.00

Powered by AerisWeather